Other Public Products
Issued by NWS Grand Forks, ND

Home | Current Version | Previous Version | Graphics & Text | Print | Product List | Glossary On
Versions: 1 2 3 4 5 6 7 8 9 10 11 12 13 14 15 16 17 18 19 20 21 22 23 24 25 26 27 28 29 30 31 32 33 34 35 36 37 38 39 40 41 42 43 44 45 46 47 48 49 50
795
FPUS83 KFGF 221731
OPUFGF
PRAIRIE TO PINES WEATHER ROUNDUP
NATIONAL WEATHER SERVICE EASTERN NORTH DAKOTA/GRAND FORKS ND
1200 PM CDT WED MAR 22 2017

 **SATELLITE DATA USED TO AUGMENT SKY COVER AT AUTOMATED STATIONS**
 *****  WEATHER ACROSS EASTERN NORTH DAKOTA  *****

CITY           SKY/WX    TMP DP  RH WIND       PRES   REMARKS
GRAND FORKS    CLOUDY    28   6  39 S23G30    30.34F WCI  14
GRAND FORKS AF CLOUDY    27  10  50 S23       30.31F WCI  12
GRAND CITY NWS NOT AVBL
BUXTON         NOT AVBL
DEVILS LAKE    CLOUDY    26  17  68 SE23G29   30.18F WCI  11
FARGO          CLOUDY    30  11  45 S30G38    30.36F WCI  15
WAHPETON ARPT  CLOUDY    30  12  47 SE25G32   30.37F WCI  16
$$

 *****  WEATHER ACROSS CENTRAL AND WESTERN NORTH DAKOTA  *****

CITY           SKY/WX    TMP DP  RH WIND       PRES   REMARKS
JAMESTOWN      LGT SNOW  27  22  81 SE26G36   30.17F WCI  12
BISMARCK       CLOUDY    37  25  61 S23G33    30.06F
MINOT          CLOUDY    32  23  69 SE16G24   30.04F WCI  21
MINOT AFB      CLOUDY    30  22  74 S20G25    30.03F WCI  17
GARRISON         N/A     30  23  75 S17G26    30.01F WCI  18
WILLISTON      FAIR      37  27  67 SE13G22   29.89F
DICKINSON      CLOUDY    37  28  70 S22       29.88F
HETTINGER      FAIR      42  31  64 S21G29    29.90F
$$

 *****  OTHER OBSERVATIONS NORTHEAST NORTH DAKOTA  *****

CITY           SKY/WX    TMP DP  RH WIND       PRES   REMARKS
WALHALLA       NOT AVBL
LANGDON        NOT AVBL
CAVALIER       NOT AVBL
GRAFTON        FAIR      27  12  54 S23G31    30.35F WCI  12
CANDO          NOT AVBL
FORT TOTTEN      N/A     26  17  68 S20       29.95S WCI  12
ROLLA          CLOUDY    23  18  80 S26G33    30.13S WCI   6
RUGBY            N/A     27  21  80 SE25G32   30.10F WCI  11
 ***** THE ABOVE OBSERVATIONS ARE NON NWS ARE NOT QUALITY
        CONTROLLED AND MAY MIS-REPORT RAIN FOR SNOW...
$$

 *****  OTHER OBSERVATIONS SOUTHEAST NORTH DAKOTA *****

CITY           SKY/WX    TMP DP  RH WIND       PRES   REMARKS
COOPERSTOWN    PTSUNNY   27  16  63 S25G35    30.24F WCI  11
VALLEY CITY    SNOW      23  23 100 SE20G28   30.28F VSB 1/4 WCI   8
OAKES          NOT AVBL
GWINNER        CLOUDY    28  16  59 MISG      30.30S
BUFFALO        NOT AVBL
WYNDMERE         N/A     30  14  51 SE20        N/A  WCI  18
 ***** THE ABOVE OBSERVATIONS ARE NON NWS ARE NOT QUALITY
       CONTROLLED AND MAY MIS-REPORT RAIN FOR SNOW...
$$

  *****  WEATHER ACROSS NORTHERN MINNESOTA  *****

CITY           SKY/WX    TMP DP  RH WIND       PRES   REMARKS
FLAG ISLAND    FAIR      21   9  58 S17       30.41F WCI   7
WARROAD        FAIR      27   9  46 S10       30.40F WCI  17
ROSEAU         FAIR      28   9  43 S13       30.39F WCI  18
HALLOCK        FAIR      28  14  54 S21       30.35F WCI  15
THF RVR FALLS  CLOUDY    27   9  46 SE18      30.38F WCI  14
HALSTAD          N/A     30  12  47 S20G32      N/A  WCI  17
FOSSTON        CLOUDY    28  10  47 SE12G17   30.38F WCI  18
BAUDETTE       FAIR      27   3  35 S12       30.42F WCI  17
WASKISH        CLOUDY    32   7  34 SE13G18   30.42F WCI  22
CROOKSTON      CLOUDY    28  10  47 S17       30.38F WCI  16
$$
  *****  WEATHER ACROSS CENTRAL AND WEST MINNESOTA  *****

CITY           SKY/WX    TMP DP  RH WIND       PRES   REMARKS
BEMIDJI        FAIR      30   5  35 S14       30.41F WCI  19
PARK RAPIDS    PTSUNNY   29   5  36 S17       30.42F WCI  17
WADENA         CLOUDY    30   9  40 S17       30.41F WCI  18
DETROIT LAKES  FAIR      32   9  37 S18G24    30.38F WCI  20
MOORHEAD       FAIR      28  10  47 S26G33    30.37F WCI  13
FERGUS FALLS   FAIR      30  10  43 S23       30.43F WCI  17
ELBOW LAKE     CLOUDY    29  11  47 S24G30    30.41R WCI  15
MORRIS MN        N/A     30  14  51 SE23G29   30.39F WCI  17
STAPLES        FAIR      30   3  31 SE10G20   30.44F WCI  21
WHEATON        CLOUDY    28  12  50 SE25G31   30.38F WCI  14
$$
  *****  WEATHER ELSEWHERE ACROSS MINNESOTA  *****

CITY           SKY/WX    TMP DP  RH WIND       PRES   REMARKS
DULUTH         FAIR      26   8  46 S8        30.51F WCI  18
INTRNTL FALLS  FAIR      25  -1  32 S8        30.48F WCI  16
ELY            FAIR      27   3  36 CALM      30.49F
CLOQUET        FAIR      28   1  31 SE3       30.49F
BRAINERD       FAIR      29   4  34 SE12G18   30.48S WCI  19
HIBBING        FAIR      25   6  44 S8G21     30.49F WCI  16
ALEXANDRIA     CLOUDY    29  10  45 S16       30.42F WCI  17
SAINT CLOUD    FAIR      30   8  39 SE14      30.48F WCI  19
MINNEAPOLIS    FAIR      32   7  35 SE12G23   30.54F WCI  23
$$

  *****  WEATHER ACROSS SOUTH DAKOTA  *****

CITY           SKY/WX    TMP DP  RH WIND       PRES   REMARKS
SIOUX FALLS    LGTSLEET  32  20  61 SE17G25   30.35F WCI  21
BROOKINGS      CLOUDY    30  17  58 S20G26    30.35F WCI  17
WATERTOWN      CLOUDY    29  15  56 SE20G30   30.31F WCI  16
HURON          CLOUDY    29  23  78 SE21G30   30.29F WCI  16
SISSETON         N/A     28  18  66 S17       30.34F WCI  16
ABERDEEN       MIX PCPN  30  18  60 SE25G31   30.25F WCI  16
MITCHELL       CLOUDY    31  26  82 SE21G28   30.32F WCI  18
PIERRE         FAIR      40  32  73 S22G31    30.09F
MOBRIDGE       FAIR      39  25  57 S33G43    30.05F
RAPID CITY     FAIR      48  36  63 S20G25    29.83F
$$

  *****  SOME WEATHER IN NEARBY STATES *****

CITY           SKY/WX    TMP DP  RH WIND       PRES   REMARKS
GLASGOW MT     CLOUDY    39  32  76 S8        29.82S
GREAT FALLS MT FAIR      55  27  34 W28G36    29.75F
CHEYENNE WY    FAIR      50  34  54 S10       30.00F
SCOTTSBLUFF NE FAIR      51  30  44 SE14      29.98F
OMAHA NE       PTSUNNY   40  23  50 SE12      30.41F
DES MOINES IA  CLOUDY    39  24  55 E14       30.47F
DAVENPORT IA   FAIR      37  16  42 E14       30.56F
CHICAGO IL     PTSUNNY   35  18  49 E14       30.58S
EAU CLAIRE WI  FAIR      31   5  33 SE12      30.56F WCI  22
LA CROSSE WI   FAIR      34   6  31 SE9       30.58F
$$

  *****  SOME NATIONAL WEATHER *****

CITY           SKY/WX    TMP DP  RH WIND       PRES   REMARKS
LA GUARDIA NY  FAIR      35   4  27 NW29G44   30.17R WCI  22
RALEIGH NC     PTSUNNY   60  26  27 N9G21     30.16R
ATLANTA GA     PTSUNNY   60  47  61 N15       30.17R
NEW ORLEANS LA FAIR      73  62  68 NW10      30.19S
OKLAHOMA CITY  FAIR      63  46  54 E14       30.17S
ALBUQUERQUE NM FAIR      65  35  33 W7        30.13F
SALT LAKE CITY PTSUNNY   61  44  53 N3        29.89S
LOS ANGELES CA PTSUNNY   60  58  92 W10       30.05R
BOISE ID       FAIR      51  39  63 SE9       29.92S
SEATTLE WA     FAIR      53  43  68 SW13      29.81R
$$

*** WEATHER ACROSS MANITOBA...SASKATCHEWAN AND ONTARIO ***
                ***ONTARIO***

CITY           SKY/WX    TMP DP  RH WIND       PRES   REMARKS
GERALDTON      MOSUNNY   18  -4  38 SW8       30.49F WCI   7
THUNDER BAY    PTSUNNY   23  -4  30 SW5       30.58F WCI  17
SIOUX LOOKOUT  PTSUNNY   21  -4  33 S3        30.47F
TORONTO        MOSUNNY   23   0  36 NW17G28   30.50S WCI   9
BIG TROUT LK   SUNNY     14  -4  44 W10G17    30.36F WCI   1
PICKLE LAKE    SUNNY     19  -6  32 W7        30.42F WCI  10
DRYDEN         PTSUNNY   21  -2  35 SW10      30.46R WCI  10
KENORA         PTSUNNY   23   1  39 S13G18    30.43F WCI  11
$$
                *** MANITOBA***

CITY           SKY/WX    TMP DP  RH WIND       PRES   REMARKS
BRANDON        FLURRIES  23  16  74 SE16G24   30.15F WCI  10
DAUPHIN        CLOUDY    19  12  73 SE12      30.16F WCI   7
ISLAND LAKE    MOSUNNY   19  -4  35 SW7       30.38F WCI  10
PILOT MOUND      N/A     23  16  74 SE23        N/A  WCI   7
THE PAS        CLOUDY    18   7  62 SE16G23   30.11F WCI   3
THOMPSON       PTSUNNY   19  -6  32 S7        30.24F WCI  10
WINNIPEG       CLOUDY    27  10  50 S20G29    30.33F WCI  13
LYNN LAKE      MOSUNNY   18  -2  41 SE14      30.09F WCI   4
CHURCHILL      MOSUNNY    9   0  66 W6        30.22F WCI  -1
GILLAM         SUNNY     14  -2  48 NW6       30.30S WCI   5
$$
                ***SASKATCHEWAN***

CITY           SKY/WX    TMP DP  RH WIND       PRES   REMARKS
ESTEVAN        CLOUDY    28  23  80 SE21      29.95S WCI  15
KINDERSLEY     LGT RAIN  36  32  87 SE20      29.62F
LLOYDMINSTER   LGT SNOW  25  25 100 E17G23    29.64F VSB 3/4 WCI  11
PRINCE ALBERT  CLOUDY    23  16  74 E12G18    29.87F WCI  12
REGINA         CLOUDY    28  21  74 SE25G36   29.87F WCI  14
YORKTON        CLOUDY    21  16  79 SE21G28   29.99F WCI   6
N. BATTLEFORD  FLURRIES  27  25  93 E20G26    29.71F W



USA.gov is the U.S. government's official web portal to all federal, state and local government web resources and services.